Weather History for St. George, UT

Change the Weather History Date:

Saturday, August 10, 2013

  Actual Average Record
Temperature  
Mean Temperature 84 °F -  
Max Temperature 98 °F 102 °F 110 °F (1940)
Min Temperature 69 °F 69 °F 59 °F (1956)
Cooling Degree Days 18    
Growing Degree Days 34 (Base 50)    
Moisture  
Dew Point 30 °F    
Average Humidity 15    
Maximum Humidity 20    
Minimum Humidity 10    
Precipitation  
Precipitation 0.00 in - - ()
Sea Level Pressure  
Sea Level Pressure 29.99 in    
Wind  
Wind Speed 8 mph (South)    
Max Wind Speed 18 mph    
Max Gust Speed 31 mph    
Visibility 10 miles    
Events      
Averages and records for this station are not official NWS values.
T = Trace of Precipitation, MM = Missing Value Source: NWS Daily Summary

Daily Weather History Graph

Daily Weather History Graph

Search for Another Location

Airport:

Trip Planner

Search our weather history database for the weather conditions in past years. The results will help you decide how hot, cold, wet, or windy it might be!

Date:

Astronomy

Aug. 10, 2013 Rise Set
Actual Time 6:47 AM MDT 8:31 PM MDT
Civil Twilight 6:19 AM MDT 8:59 PM MDT
Nautical Twilight 5:45 AM MDT 9:33 PM MDT
Astronomical Twilight 5:09 AM MDT 10:09 PM MDT
Moon 10:30 AM MDT (8/10) 10:23 PM MDT (8/10)
Length of Visible Light 14h 40m
Length of Day
13h 44m
Waxing Crescent, 14% of the Moon is Illuminated
Aug 10
Waxing Crescent
Aug 14
First Quarter
Aug 20
Full
Aug 28
Last Quarter
Sep 5
New

Hourly Weather History & Observations

Time (MDT) Temp. Dew Point Humidity Pressure Visibility Wind Dir Wind Speed Gust Speed Precip Events Conditions
12:15 AM 78.8 °F 26.6 °F 15% 29.96 in 10.0 mi SE 8.1 mph - N/A   Clear
12:35 AM 78.8 °F 26.6 °F 15% 29.96 in 10.0 mi SE 11.5 mph - N/A   Clear
12:55 AM 78.8 °F 26.6 °F 15% 29.97 in 10.0 mi ESE 10.4 mph - N/A   Clear
1:15 AM 78.8 °F 26.6 °F 15% 29.97 in 10.0 mi ESE 9.2 mph - N/A   Clear
1:35 AM 78.8 °F 26.6 °F 15% 29.97 in 10.0 mi ESE 10.4 mph - N/A   Clear
1:55 AM 78.8 °F 26.6 °F 15% 29.97 in 10.0 mi ESE 11.5 mph - N/A   Clear
2:15 AM 77.0 °F 26.6 °F 16% 29.97 in 10.0 mi SE 10.4 mph - N/A   Clear
2:35 AM 77.0 °F 26.6 °F 16% 29.98 in 10.0 mi SE 10.4 mph - N/A   Clear
2:55 AM 77.0 °F 26.6 °F 16% 29.98 in 10.0 mi SE 10.4 mph - N/A   Clear
3:15 AM 75.2 °F 26.6 °F 17% 29.98 in 10.0 mi ESE 10.4 mph - N/A   Clear
3:35 AM 73.4 °F 26.6 °F 18% 29.99 in 10.0 mi ESE 5.8 mph - N/A   Clear
3:55 AM 75.2 °F 26.6 °F 17% 29.98 in 10.0 mi East 3.5 mph - N/A   Clear
4:15 AM 75.2 °F 26.6 °F 17% 29.98 in 10.0 mi North 3.5 mph - N/A   Clear
4:35 AM 73.4 °F 26.6 °F 18% 29.99 in 10.0 mi Calm Calm - N/A   Clear
4:55 AM 71.6 °F 26.6 °F 19% 29.99 in 10.0 mi ESE 9.2 mph - N/A   Clear
5:15 AM 71.6 °F 26.6 °F 19% 29.99 in 10.0 mi ESE 5.8 mph - N/A   Partly Cloudy
5:35 AM 71.6 °F 28.4 °F 20% 29.99 in 10.0 mi SE 6.9 mph - N/A   Partly Cloudy
5:55 AM 71.6 °F 28.4 °F 20% 30.00 in 10.0 mi SE 5.8 mph - N/A   Clear
6:15 AM 71.6 °F 26.6 °F 19% 30.00 in 10.0 mi ESE 8.1 mph - N/A   Clear
6:35 AM 71.6 °F 26.6 °F 19% 30.01 in 10.0 mi SSE 4.6 mph - N/A   Clear
6:55 AM 69.8 °F 26.6 °F 20% 30.02 in 10.0 mi Calm Calm - N/A   Clear
7:15 AM 71.6 °F 26.6 °F 19% 30.03 in 10.0 mi East 5.8 mph - N/A   Clear
7:35 AM 71.6 °F 28.4 °F 20% 30.03 in 10.0 mi ESE 5.8 mph - N/A   Clear
7:55 AM 71.6 °F 28.4 °F 20% 30.04 in 10.0 mi ESE 5.8 mph - N/A   Clear
8:15 AM 71.6 °F 28.4 °F 20% 30.05 in 10.0 mi South 3.5 mph - N/A   Clear
8:35 AM 73.4 °F 28.4 °F 19% 30.05 in 10.0 mi SW 3.5 mph - N/A   Clear
8:55 AM 73.4 °F 28.4 °F 19% 30.06 in 10.0 mi SW 5.8 mph - N/A   Clear
9:15 AM 75.2 °F 28.4 °F 18% 30.06 in 10.0 mi SW 3.5 mph - N/A   Clear
9:35 AM 75.2 °F 30.2 °F 19% 30.06 in 10.0 mi Calm Calm - N/A   Clear
9:55 AM 75.2 °F 28.4 °F 18% 30.06 in 10.0 mi Calm Calm - N/A   Clear
10:15 AM 75.2 °F 30.2 °F 19% 30.06 in 10.0 mi SW 3.5 mph - N/A   Clear
10:35 AM 77.0 °F 30.2 °F 18% 30.06 in 10.0 mi Calm Calm - N/A   Clear
10:55 AM 78.8 °F 30.2 °F 17% 30.06 in 10.0 mi Calm Calm - N/A   Clear
11:15 AM 78.8 °F 30.2 °F 17% 30.06 in 10.0 mi Calm Calm - N/A   Clear
11:35 AM 82.4 °F 32.0 °F 16% 30.05 in 10.0 mi NNW 4.6 mph - N/A   Clear
11:55 AM 84.2 °F 33.8 °F 16% 30.04 in 10.0 mi NW 4.6 mph - N/A   Clear
12:15 PM 87.8 °F 33.8 °F 15% 30.03 in 10.0 mi NW 4.6 mph - N/A   Clear
12:35 PM 87.8 °F 35.6 °F 16% 30.02 in 10.0 mi WNW 3.5 mph - N/A   Clear
12:55 PM 89.6 °F 35.6 °F 15% 30.01 in 10.0 mi Calm Calm - N/A   Clear
1:15 PM 93.2 °F 35.6 °F 13% 29.99 in 10.0 mi ESE 6.9 mph 16.1 mph N/A   Clear
1:35 PM 98.6 °F 33.8 °F 10% 29.99 in 10.0 mi SSW 18.4 mph 31.1 mph N/A   Clear
2:15 PM 96.8 °F 33.8 °F 11% 29.98 in 10.0 mi South 5.8 mph - N/A   Clear
2:35 PM 98.6 °F 33.8 °F 10% 29.97 in 9.0 mi SW 13.8 mph 24.2 mph N/A   Clear
2:55 PM 96.8 °F 33.8 °F 11% 29.97 in 10.0 mi SSW 9.2 mph - N/A   Clear
3:15 PM 96.8 °F 33.8 °F 11% 29.96 in 10.0 mi WSW 16.1 mph 19.6 mph N/A   Clear
3:35 PM 98.6 °F 33.8 °F 10% 29.96 in 10.0 mi WSW 9.2 mph 17.3 mph N/A   Clear
3:55 PM 98.6 °F 33.8 °F 10% 29.95 in 10.0 mi WSW 5.8 mph 19.6 mph N/A   Clear
4:15 PM 98.6 °F 33.8 °F 10% 29.95 in 10.0 mi SSW 9.2 mph 18.4 mph N/A   Clear
4:35 PM 98.6 °F 33.8 °F 10% 29.94 in 10.0 mi SSW 18.4 mph 23.0 mph N/A   Clear
4:55 PM 98.6 °F 33.8 °F 10% 29.94 in 10.0 mi SSW 12.7 mph - N/A   Clear
5:15 PM 98.6 °F 33.8 °F 10% 29.93 in 10.0 mi WSW 15.0 mph 19.6 mph N/A   Clear
5:35 PM 98.6 °F 33.8 °F 10% 29.93 in 10.0 mi WSW 12.7 mph 23.0 mph N/A   Clear
5:55 PM 98.6 °F 33.8 °F 10% 29.92 in 10.0 mi SW 13.8 mph 20.7 mph N/A   Clear
6:15 PM 98.6 °F 32.0 °F 10% 29.92 in 10.0 mi WSW 10.4 mph - N/A   Clear
6:35 PM 98.6 °F 33.8 °F 10% 29.92 in 10.0 mi WSW 12.7 mph - N/A   Clear
6:55 PM 96.8 °F 32.0 °F 10% 29.92 in 10.0 mi SW 11.5 mph 21.9 mph N/A   Clear
7:15 PM 96.8 °F 30.2 °F 10% 29.92 in 10.0 mi West 17.3 mph 21.9 mph N/A   Clear
7:35 PM 95.0 °F 30.2 °F 10% 29.92 in 10.0 mi West 15.0 mph 19.6 mph N/A   Clear
7:55 PM 93.2 °F 30.2 °F 11% 29.92 in 10.0 mi West 15.0 mph - N/A   Clear
8:15 PM 93.2 °F 28.4 °F 10% 29.94 in 10.0 mi West 12.7 mph - N/A   Clear
8:35 PM 91.4 °F 28.4 °F 10% 29.94 in 10.0 mi West 10.4 mph - N/A   Clear
8:55 PM 91.4 °F 28.4 °F 10% 29.95 in 10.0 mi West 6.9 mph - N/A   Clear
9:15 PM 89.6 °F 28.4 °F 11% 29.95 in 10.0 mi WNW 5.8 mph - N/A   Clear
9:35 PM 89.6 °F 28.4 °F 11% 29.96 in 10.0 mi West 9.2 mph - N/A   Clear
9:55 PM 89.6 °F 28.4 °F 11% 29.97 in 10.0 mi West 8.1 mph - N/A   Clear
10:15 PM 87.8 °F 26.6 °F 11% 29.98 in 10.0 mi Calm Calm - N/A   Clear
10:35 PM 82.4 °F 24.8 °F 12% 29.99 in 10.0 mi ESE 3.5 mph - N/A   Clear
10:55 PM 80.6 °F 24.8 °F 13% 30.00 in 10.0 mi ESE 10.4 mph - N/A   Clear
11:15 PM 80.6 °F 26.6 °F 14% 30.00 in 10.0 mi SW 3.5 mph - N/A   Clear
11:35 PM 80.6 °F 26.6 °F 14% 30.00 in 10.0 mi SSE 4.6 mph - N/A   Clear
11:55 PM 77.0 °F 26.6 °F 16% 30.01 in 10.0 mi ESE 8.1 mph - N/A   Clear